Year,Month,Day,Hour,Minute,Value (Times are PST for temperature in C)
2011,07,27,00,00,12.40
2011,07,27,00,01,12.40
2011,07,27,00,02,12.40
2011,07,27,00,03,12.40
2011,07,27,00,04,12.40
2011,07,27,00,05,12.40
2011,07,27,00,06,12.40
2011,07,27,00,07,12.40
2011,07,27,00,08,12.40
2011,07,27,00,09,12.40
2011,07,27,00,10,12.40
2011,07,27,00,11,12.40
2011,07,27,00,12,12.40
2011,07,27,00,13,12.40
2011,07,27,00,14,12.40
2011,07,27,00,15,12.40
2011,07,27,00,16,12.40
2011,07,27,00,17,12.40
2011,07,27,00,18,12.40
2011,07,27,00,19,12.40
2011,07,27,00,20,12.40
2011,07,27,00,21,12.40
2011,07,27,00,22,12.40
2011,07,27,00,23,12.40
2011,07,27,00,24,12.40
2011,07,27,00,25,12.40
2011,07,27,00,26,12.40
2011,07,27,00,27,12.40
2011,07,27,00,28,12.40
2011,07,27,00,29,12.40
2011,07,27,00,30,12.40
2011,07,27,00,31,12.40
2011,07,27,00,32,12.40
2011,07,27,00,33,12.40
2011,07,27,00,34,12.40
2011,07,27,00,35,12.40
2011,07,27,00,36,12.40
2011,07,27,00,37,12.40
2011,07,27,00,38,12.40
2011,07,27,00,39,12.40
2011,07,27,00,40,12.40
2011,07,27,00,41,12.40
2011,07,27,00,42,12.30
2011,07,27,00,43,12.30
2011,07,27,00,44,12.30
2011,07,27,00,45,12.30
2011,07,27,00,46,12.30
2011,07,27,00,47,12.30
2011,07,27,00,48,12.30
2011,07,27,00,49,12.30
2011,07,27,00,50,12.40
2011,07,27,00,51,12.40
2011,07,27,00,52,12.40
2011,07,27,00,53,12.40
2011,07,27,00,54,12.40
2011,07,27,00,55,12.40
2011,07,27,00,56,12.50
2011,07,27,00,57,12.50
2011,07,27,00,58,12.50
2011,07,27,00,59,12.60
2011,07,27,01,00,12.60
2011,07,27,01,01,12.60
2011,07,27,01,02,12.60
2011,07,27,01,03,12.60
2011,07,27,01,04,12.60
2011,07,27,01,05,12.60
2011,07,27,01,06,12.60
2011,07,27,01,07,12.70
2011,07,27,01,08,12.70
2011,07,27,01,09,12.70
2011,07,27,01,10,12.70
2011,07,27,01,11,12.70
2011,07,27,01,12,12.70
2011,07,27,01,13,12.70
2011,07,27,01,14,12.70
2011,07,27,01,15,12.70
2011,07,27,01,16,12.70
2011,07,27,01,17,12.70
2011,07,27,01,18,12.70
2011,07,27,01,19,12.70
2011,07,27,01,20,12.70
2011,07,27,01,21,12.70
2011,07,27,01,22,12.70
2011,07,27,01,23,12.70
2011,07,27,01,24,12.70
2011,07,27,01,25,12.70
2011,07,27,01,26,12.70
2011,07,27,01,27,12.70
2011,07,27,01,28,12.70
2011,07,27,01,29,12.70
2011,07,27,01,30,12.70
2011,07,27,01,31,12.70
2011,07,27,01,32,12.70
2011,07,27,01,33,12.70
2011,07,27,01,34,12.70
2011,07,27,01,35,12.80
2011,07,27,01,36,12.80
2011,07,27,01,37,12.80
2011,07,27,01,38,12.80
2011,07,27,01,39,12.90
2011,07,27,01,40,12.90
2011,07,27,01,41,13.00
2011,07,27,01,42,13.10
2011,07,27,01,43,13.20
2011,07,27,01,44,13.30
2011,07,27,01,45,13.40
2011,07,27,01,46,13.60
2011,07,27,01,47,13.70
2011,07,27,01,48,13.80
2011,07,27,01,49,13.90
2011,07,27,01,50,14.00
2011,07,27,01,51,14.00
2011,07,27,01,52,14.10
2011,07,27,01,53,14.20
2011,07,27,01,54,14.30
2011,07,27,01,55,14.40
2011,07,27,01,56,14.50
2011,07,27,01,57,14.50
2011,07,27,01,58,14.60
2011,07,27,01,59,14.60
2011,07,27,02,00,14.60
2011,07,27,02,01,14.70
2011,07,27,02,02,14.70
2011,07,27,02,03,14.70
2011,07,27,02,04,14.70
2011,07,27,02,05,14.80
2011,07,27,02,06,14.80
2011,07,27,02,07,14.80
2011,07,27,02,08,14.80
2011,07,27,02,09,14.80
2011,07,27,02,10,14.80
2011,07,27,02,11,14.80
2011,07,27,02,12,14.80
2011,07,27,02,13,14.80
2011,07,27,02,14,14.80
2011,07,27,02,15,14.80
2011,07,27,02,16,14.90
2011,07,27,02,17,14.90
2011,07,27,02,18,14.90
2011,07,27,02,19,14.90
2011,07,27,02,20,14.90
2011,07,27,02,21,14.90
2011,07,27,02,22,14.90
2011,07,27,02,23,14.90
2011,07,27,02,24,14.90
2011,07,27,02,25,14.90
2011,07,27,02,26,14.90
2011,07,27,02,27,14.90
2011,07,27,02,28,14.90
2011,07,27,02,29,15.00
2011,07,27,02,30,15.00
2011,07,27,02,31,15.00
2011,07,27,02,32,15.00
2011,07,27,02,33,15.00
2011,07,27,02,34,15.00
2011,07,27,02,35,15.00
2011,07,27,02,36,15.00
2011,07,27,02,37,15.00
2011,07,27,02,38,15.00
2011,07,27,02,39,15.00
2011,07,27,02,40,15.00
2011,07,27,02,41,15.00
2011,07,27,02,42,15.00
2011,07,27,02,43,15.00
2011,07,27,02,44,15.00
2011,07,27,02,45,15.00
2011,07,27,02,46,14.90
2011,07,27,02,47,14.90
2011,07,27,02,48,14.90
2011,07,27,02,49,14.90
2011,07,27,02,50,15.00
2011,07,27,02,51,15.00
2011,07,27,02,52,15.00
2011,07,27,02,53,15.00
2011,07,27,02,54,15.00
2011,07,27,02,55,15.00
2011,07,27,02,56,15.00
2011,07,27,02,57,15.00
2011,07,27,02,58,15.00
2011,07,27,02,59,15.00
2011,07,27,03,00,15.00
2011,07,27,03,01,15.00
2011,07,27,03,02,15.10
2011,07,27,03,03,15.10
2011,07,27,03,04,15.10
2011,07,27,03,05,15.00
2011,07,27,03,06,15.10
2011,07,27,03,07,15.00
2011,07,27,03,08,15.10
2011,07,27,03,09,15.10
2011,07,27,03,10,15.00
2011,07,27,03,11,15.10
2011,07,27,03,12,15.10
2011,07,27,03,13,15.10
2011,07,27,03,14,15.10
2011,07,27,03,15,15.10
2011,07,27,03,16,15.10
2011,07,27,03,17,15.10
2011,07,27,03,18,15.10
2011,07,27,03,19,15.10
2011,07,27,03,20,15.10
2011,07,27,03,21,15.10
2011,07,27,03,22,15.10
2011,07,27,03,23,15.10
2011,07,27,03,24,15.10
2011,07,27,03,25,15.10
2011,07,27,03,26,15.10
2011,07,27,03,27,15.10
2011,07,27,03,28,15.10
2011,07,27,03,29,15.10
2011,07,27,03,30,15.10
2011,07,27,03,31,15.10
2011,07,27,03,32,15.10
2011,07,27,03,33,15.00
2011,07,27,03,34,15.00
2011,07,27,03,35,15.00
2011,07,27,03,36,15.00
2011,07,27,03,37,15.00
2011,07,27,03,38,15.00
2011,07,27,03,39,14.90
2011,07,27,03,40,14.90
2011,07,27,03,41,14.90
2011,07,27,03,42,14.90
2011,07,27,03,43,14.90
2011,07,27,03,44,15.00
2011,07,27,03,45,15.00
2011,07,27,03,46,15.00
2011,07,27,03,47,15.00
2011,07,27,03,48,15.00
2011,07,27,03,49,15.00
2011,07,27,03,50,15.00
2011,07,27,03,51,15.00
2011,07,27,03,52,15.00
2011,07,27,03,53,15.00
2011,07,27,03,54,15.00
2011,07,27,03,55,15.00
2011,07,27,03,56,15.10
2011,07,27,03,57,15.10
2011,07,27,03,58,15.10
2011,07,27,03,59,15.10
2011,07,27,04,00,15.10
2011,07,27,04,01,15.10
2011,07,27,04,02,15.10
2011,07,27,04,03,15.10
2011,07,27,04,04,15.10
2011,07,27,04,05,15.10
2011,07,27,04,06,15.10
2011,07,27,04,07,15.10
2011,07,27,04,08,15.10
2011,07,27,04,09,15.10
2011,07,27,04,10,15.20
2011,07,27,04,11,15.10
2011,07,27,04,12,15.20
2011,07,27,04,13,15.20
2011,07,27,04,14,15.20
2011,07,27,04,15,15.20
2011,07,27,04,16,15.20
2011,07,27,04,17,15.20
2011,07,27,04,18,15.20
2011,07,27,04,19,15.20
2011,07,27,04,20,15.20
2011,07,27,04,21,15.20
2011,07,27,04,22,15.20
2011,07,27,04,23,15.10
2011,07,27,04,24,15.10
2011,07,27,04,25,15.10
2011,07,27,04,26,15.10
2011,07,27,04,27,15.10
2011,07,27,04,28,15.10
2011,07,27,04,29,15.10
2011,07,27,04,30,15.10
2011,07,27,04,31,15.10
2011,07,27,04,32,15.00
2011,07,27,04,33,15.00
2011,07,27,04,34,15.00
2011,07,27,04,35,15.00
2011,07,27,04,36,15.00
2011,07,27,04,37,14.90
2011,07,27,04,38,14.90
2011,07,27,04,39,14.90
2011,07,27,04,40,14.90
2011,07,27,04,41,14.90
2011,07,27,04,42,14.90
2011,07,27,04,43,14.90
2011,07,27,04,44,14.90
2011,07,27,04,45,14.90
2011,07,27,04,46,14.80
2011,07,27,04,47,14.80
2011,07,27,04,48,14.80
2011,07,27,04,49,14.80
2011,07,27,04,50,14.80
2011,07,27,04,51,14.80
2011,07,27,04,52,14.80
2011,07,27,04,53,14.80
2011,07,27,04,54,14.80
2011,07,27,04,55,14.80
2011,07,27,04,56,14.80
2011,07,27,04,57,14.80
2011,07,27,04,58,14.80
2011,07,27,04,59,14.80
2011,07,27,05,00,14.80
2011,07,27,05,01,14.80
2011,07,27,05,02,14.80
2011,07,27,05,03,14.80
2011,07,27,05,04,14.80
2011,07,27,05,05,14.80
2011,07,27,05,06,14.80
2011,07,27,05,07,14.80
2011,07,27,05,08,14.80
2011,07,27,05,09,14.80
2011,07,27,05,10,14.80
2011,07,27,05,11,14.80
2011,07,27,05,12,14.80
2011,07,27,05,13,14.80
2011,07,27,05,14,14.80
2011,07,27,05,15,14.80
2011,07,27,05,16,14.80
2011,07,27,05,17,14.80
2011,07,27,05,18,14.80
2011,07,27,05,19,14.80
2011,07,27,05,20,14.70
2011,07,27,05,21,14.70
2011,07,27,05,22,14.70
2011,07,27,05,23,14.70
2011,07,27,05,24,14.70
2011,07,27,05,25,14.70
2011,07,27,05,26,14.70
2011,07,27,05,27,14.70
2011,07,27,05,28,14.70
2011,07,27,05,29,14.70
2011,07,27,05,30,14.60
2011,07,27,05,31,14.60
2011,07,27,05,32,14.60
2011,07,27,05,33,14.60
2011,07,27,05,34,14.60
2011,07,27,05,35,14.60
2011,07,27,05,36,14.60
2011,07,27,05,37,14.60
2011,07,27,05,38,14.60
2011,07,27,05,39,14.60
2011,07,27,05,40,14.60
2011,07,27,05,41,14.60
2011,07,27,05,42,14.60
2011,07,27,05,43,14.60
2011,07,27,05,44,14.50
2011,07,27,05,45,14.50
2011,07,27,05,46,14.60
2011,07,27,05,47,14.60
2011,07,27,05,48,14.60
2011,07,27,05,49,14.60
2011,07,27,05,50,14.60
2011,07,27,05,51,14.60
2011,07,27,05,52,14.60
2011,07,27,05,53,14.60
2011,07,27,05,54,14.60
2011,07,27,05,55,14.60
2011,07,27,05,56,14.60
2011,07,27,05,57,14.60
2011,07,27,05,58,14.60
2011,07,27,05,59,14.60
2011,07,27,06,00,14.60
2011,07,27,06,01,14.60
2011,07,27,06,02,14.60
2011,07,27,06,03,14.60
2011,07,27,06,04,14.60
2011,07,27,06,05,14.60
2011,07,27,06,06,14.50
2011,07,27,06,07,14.50
2011,07,27,06,08,14.50
2011,07,27,06,09,14.50
2011,07,27,06,10,14.50
2011,07,27,06,11,14.50
2011,07,27,06,12,14.50
2011,07,27,06,13,14.50
2011,07,27,06,14,14.50
2011,07,27,06,15,14.50
2011,07,27,06,16,14.40
2011,07,27,06,17,14.40
2011,07,27,06,18,14.40
2011,07,27,06,19,14.40
2011,07,27,06,20,14.40
2011,07,27,06,21,14.40
2011,07,27,06,22,14.40
2011,07,27,06,23,14.40
2011,07,27,06,24,14.40
2011,07,27,06,25,14.40
2011,07,27,06,26,14.40
2011,07,27,06,27,14.40
2011,07,27,06,28,14.40
2011,07,27,06,29,14.40
2011,07,27,06,30,14.40
2011,07,27,06,31,14.40
2011,07,27,06,32,14.40
2011,07,27,06,33,14.40
2011,07,27,06,34,14.40
2011,07,27,06,35,14.40
2011,07,27,06,36,14.40
2011,07,27,06,37,14.40
2011,07,27,06,38,14.40
2011,07,27,06,39,14.40
2011,07,27,06,40,14.40
2011,07,27,06,41,14.40
2011,07,27,06,42,14.40
2011,07,27,06,43,14.30
2011,07,27,06,44,14.30
2011,07,27,06,45,14.30
2011,07,27,06,46,14.30
2011,07,27,06,47,14.30
2011,07,27,06,48,14.30
2011,07,27,06,49,14.30
2011,07,27,06,50,14.30
2011,07,27,06,51,14.30
2011,07,27,06,52,14.30
2011,07,27,06,53,14.30
2011,07,27,06,54,14.30
2011,07,27,06,55,14.30
2011,07,27,06,56,14.30
2011,07,27,06,57,14.30
2011,07,27,06,58,14.30
2011,07,27,06,59,14.30
2011,07,27,07,00,14.30
2011,07,27,07,01,14.30
2011,07,27,07,02,14.30
2011,07,27,07,03,14.30
2011,07,27,07,04,14.30
2011,07,27,07,05,14.30
2011,07,27,07,06,14.30
2011,07,27,07,07,14.30
2011,07,27,07,08,14.30
2011,07,27,07,09,14.30
2011,07,27,07,10,14.30
2011,07,27,07,11,14.30
2011,07,27,07,12,14.30
2011,07,27,07,13,14.30
2011,07,27,07,14,14.30
2011,07,27,07,15,14.30
2011,07,27,07,16,14.30
2011,07,27,07,17,14.30
2011,07,27,07,18,14.30
2011,07,27,07,19,14.30
2011,07,27,07,20,14.30
2011,07,27,07,21,14.30
2011,07,27,07,22,14.30
2011,07,27,07,23,14.30
2011,07,27,07,24,14.30
2011,07,27,07,25,14.30
2011,07,27,07,26,14.30
2011,07,27,07,27,14.40
2011,07,27,07,28,14.40
2011,07,27,07,29,14.40
2011,07,27,07,30,14.40
2011,07,27,07,31,14.40
2011,07,27,07,32,14.40
2011,07,27,07,33,14.40
2011,07,27,07,34,14.40
2011,07,27,07,35,14.40
2011,07,27,07,36,14.40
2011,07,27,07,37,14.40
2011,07,27,07,38,14.40
2011,07,27,07,39,14.40
2011,07,27,07,40,14.40
2011,07,27,07,41,14.40
2011,07,27,07,42,14.50
2011,07,27,07,43,14.50
2011,07,27,07,44,14.50
2011,07,27,07,45,14.50
2011,07,27,07,46,14.50
2011,07,27,07,47,14.50
2011,07,27,07,48,14.50
2011,07,27,07,49,14.60
2011,07,27,07,50,14.60
2011,07,27,07,51,14.60
2011,07,27,07,52,14.60
2011,07,27,07,53,14.60
2011,07,27,07,54,14.60
2011,07,27,07,55,14.60
2011,07,27,07,56,14.60
2011,07,27,07,57,14.60
2011,07,27,07,58,14.60
2011,07,27,07,59,14.70
2011,07,27,08,00,14.70
2011,07,27,08,01,14.70
2011,07,27,08,02,14.70
2011,07,27,08,03,14.80
2011,07,27,08,04,14.80
2011,07,27,08,05,14.80
2011,07,27,08,06,14.80
2011,07,27,08,07,14.80
2011,07,27,08,08,14.80
2011,07,27,08,09,14.80
2011,07,27,08,10,14.80
2011,07,27,08,11,14.80
2011,07,27,08,12,14.90
2011,07,27,08,13,14.90
2011,07,27,08,14,14.90
2011,07,27,08,15,14.90
2011,07,27,08,16,14.90
2011,07,27,08,17,15.00
2011,07,27,08,18,15.00
2011,07,27,08,19,15.00
2011,07,27,08,20,15.00
2011,07,27,08,21,15.00
2011,07,27,08,22,15.00
2011,07,27,08,23,15.00
2011,07,27,08,24,15.10
2011,07,27,08,25,15.10
2011,07,27,08,26,15.10
2011,07,27,08,27,15.10
2011,07,27,08,28,15.20
2011,07,27,08,29,15.20
2011,07,27,08,30,15.20
2011,07,27,08,31,15.20
2011,07,27,08,32,15.30
2011,07,27,08,33,15.30
2011,07,27,08,34,15.40
2011,07,27,08,35,15.40
2011,07,27,08,36,15.50
2011,07,27,08,37,15.50
2011,07,27,08,38,15.60
2011,07,27,08,39,15.70
2011,07,27,08,40,15.70
2011,07,27,08,41,15.80
2011,07,27,08,42,15.80
2011,07,27,08,43,15.90
2011,07,27,08,44,15.90
2011,07,27,08,45,16.00
2011,07,27,08,46,16.00
2011,07,27,08,47,16.10
2011,07,27,08,48,16.20
2011,07,27,08,49,16.20
2011,07,27,08,50,16.30
2011,07,27,08,51,16.30
2011,07,27,08,52,16.40
2011,07,27,08,53,16.50
2011,07,27,08,54,16.50
2011,07,27,08,55,16.50
2011,07,27,08,56,16.50
2011,07,27,08,57,16.50
2011,07,27,08,58,16.50
2011,07,27,08,59,16.50
2011,07,27,09,00,16.50
2011,07,27,09,01,16.50
2011,07,27,09,02,16.50
2011,07,27,09,03,16.50
2011,07,27,09,04,16.50
2011,07,27,09,05,16.50
2011,07,27,09,06,16.40
2011,07,27,09,07,16.40
2011,07,27,09,08,16.30
2011,07,27,09,09,16.20
2011,07,27,09,10,16.20
2011,07,27,09,11,16.20
2011,07,27,09,12,16.10
2011,07,27,09,13,16.10
2011,07,27,09,14,16.10
2011,07,27,09,15,16.00
2011,07,27,09,16,16.00
2011,07,27,09,17,16.00
2011,07,27,09,18,15.90
2011,07,27,09,19,15.90
2011,07,27,09,20,15.90
2011,07,27,09,21,16.00
2011,07,27,09,22,16.00
2011,07,27,09,23,16.00
2011,07,27,09,24,16.10
2011,07,27,09,25,16.10
2011,07,27,09,26,16.10
2011,07,27,09,27,16.10
2011,07,27,09,28,16.10
2011,07,27,09,29,16.20
2011,07,27,09,30,16.20
2011,07,27,09,31,16.30
2011,07,27,09,32,16.30
2011,07,27,09,33,16.30
2011,07,27,09,34,16.30
2011,07,27,09,35,16.40
2011,07,27,09,36,16.40
2011,07,27,09,37,16.50
2011,07,27,09,38,16.50
2011,07,27,09,39,16.60
2011,07,27,09,40,16.60
2011,07,27,09,41,16.70
2011,07,27,09,42,16.70
2011,07,27,09,43,16.70
2011,07,27,09,44,16.70
2011,07,27,09,45,16.80
2011,07,27,09,46,16.80
2011,07,27,09,47,16.80
2011,07,27,09,48,16.80
2011,07,27,09,49,16.90
2011,07,27,09,50,16.90
2011,07,27,09,51,16.90
2011,07,27,09,52,16.90
2011,07,27,09,53,16.90
2011,07,27,09,54,16.90
2011,07,27,09,55,16.90
2011,07,27,09,56,16.90
2011,07,27,09,57,16.90
2011,07,27,09,58,16.90
2011,07,27,09,59,16.90
2011,07,27,10,00,16.90
2011,07,27,10,01,16.90
2011,07,27,10,02,16.90
2011,07,27,10,03,16.90
2011,07,27,10,04,16.90
2011,07,27,10,05,16.90
2011,07,27,10,06,16.90
2011,07,27,10,07,17.00
2011,07,27,10,08,17.00
2011,07,27,10,09,17.10
2011,07,27,10,10,17.10
2011,07,27,10,11,17.00
2011,07,27,10,12,17.10
2011,07,27,10,13,17.10
2011,07,27,10,14,17.20
2011,07,27,10,15,17.30
2011,07,27,10,16,17.40
2011,07,27,10,17,17.40
2011,07,27,10,18,17.40
2011,07,27,10,19,17.40
2011,07,27,10,20,17.40
2011,07,27,10,21,17.40
2011,07,27,10,22,17.30
2011,07,27,10,23,17.20
2011,07,27,10,24,17.20
2011,07,27,10,25,17.20
2011,07,27,10,26,17.10
2011,07,27,10,27,17.10
2011,07,27,10,28,17.10
2011,07,27,10,29,17.10
2011,07,27,10,30,17.00
2011,07,27,10,31,17.10
2011,07,27,10,32,17.10
2011,07,27,10,33,17.10
2011,07,27,10,34,17.10
2011,07,27,10,35,17.10
2011,07,27,10,36,17.20
2011,07,27,10,37,17.20
2011,07,27,10,38,17.20
2011,07,27,10,39,17.20
2011,07,27,10,40,17.20
2011,07,27,10,41,17.20
2011,07,27,10,42,17.20
2011,07,27,10,43,17.20
2011,07,27,10,44,17.20
2011,07,27,10,45,17.20
2011,07,27,10,46,17.30
2011,07,27,10,47,17.30
2011,07,27,10,48,17.40
2011,07,27,10,49,17.40
2011,07,27,10,50,17.50
2011,07,27,10,51,17.40
2011,07,27,10,52,17.50
2011,07,27,10,53,17.40
2011,07,27,10,54,17.40
2011,07,27,10,55,17.40
2011,07,27,10,56,17.40
2011,07,27,10,57,17.30
2011,07,27,10,58,17.30
2011,07,27,10,59,17.30
2011,07,27,11,00,17.30
2011,07,27,11,01,17.30
2011,07,27,11,02,17.30
2011,07,27,11,03,17.40
2011,07,27,11,04,17.50
2011,07,27,11,05,17.50
2011,07,27,11,06,17.50
2011,07,27,11,07,17.60
2011,07,27,11,08,17.60
2011,07,27,11,09,17.60
2011,07,27,11,10,17.60
2011,07,27,11,11,17.60
2011,07,27,11,12,17.70
2011,07,27,11,13,17.70
2011,07,27,11,14,17.70
2011,07,27,11,15,17.70
2011,07,27,11,16,17.70
2011,07,27,11,17,17.80
2011,07,27,11,18,17.80
2011,07,27,11,19,17.90
2011,07,27,11,20,18.00
2011,07,27,11,21,18.00
2011,07,27,11,22,18.10
2011,07,27,11,23,18.10
2011,07,27,11,24,18.10
2011,07,27,11,25,18.10
2011,07,27,11,26,18.10
2011,07,27,11,27,18.10
2011,07,27,11,28,18.10
2011,07,27,11,29,18.10
2011,07,27,11,30,18.10
2011,07,27,11,31,18.10
2011,07,27,11,32,18.10
2011,07,27,11,33,18.10
2011,07,27,11,34,18.00
2011,07,27,11,35,18.00
2011,07,27,11,36,18.00
2011,07,27,11,37,18.10
2011,07,27,11,38,18.20
2011,07,27,11,39,18.40
2011,07,27,11,40,18.50
2011,07,27,11,41,18.60
2011,07,27,11,42,18.50
2011,07,27,11,43,18.50
2011,07,27,11,44,18.50
2011,07,27,11,45,18.40
2011,07,27,11,46,18.40
2011,07,27,11,47,18.40
2011,07,27,11,48,18.30
2011,07,27,11,49,18.20
2011,07,27,11,50,18.20
2011,07,27,11,51,18.20
2011,07,27,11,52,18.20
2011,07,27,11,53,18.30
2011,07,27,11,54,18.20
2011,07,27,11,55,18.00
2011,07,27,11,56,17.90
2011,07,27,11,57,17.80
2011,07,27,11,58,17.80
2011,07,27,11,59,17.80
2011,07,27,12,00,17.80
2011,07,27,12,01,17.80
2011,07,27,12,02,17.90
2011,07,27,12,03,17.90
2011,07,27,12,04,17.90
2011,07,27,12,05,17.90
2011,07,27,12,06,17.90
2011,07,27,12,07,17.90
2011,07,27,12,08,17.90
2011,07,27,12,09,17.80
2011,07,27,12,10,17.90
2011,07,27,12,11,17.90
2011,07,27,12,12,17.90
2011,07,27,12,13,18.00
2011,07,27,12,14,18.00
2011,07,27,12,15,18.00
2011,07,27,12,16,18.10
2011,07,27,12,17,18.20
2011,07,27,12,18,18.20
2011,07,27,12,19,18.10
2011,07,27,12,20,18.10
2011,07,27,12,21,18.10
2011,07,27,12,22,18.10
2011,07,27,12,23,18.10
2011,07,27,12,24,18.10
2011,07,27,12,25,18.20
2011,07,27,12,26,18.30
2011,07,27,12,27,18.30
2011,07,27,12,28,18.40
2011,07,27,12,29,18.40
2011,07,27,12,30,18.40
2011,07,27,12,31,18.50
2011,07,27,12,32,18.60
2011,07,27,12,33,18.60
2011,07,27,12,34,18.60
2011,07,27,12,35,18.60
2011,07,27,12,36,18.70
2011,07,27,12,37,18.80
2011,07,27,12,38,18.80
2011,07,27,12,39,18.90
2011,07,27,12,40,18.90
2011,07,27,12,41,19.00
2011,07,27,12,42,19.10
2011,07,27,12,43,19.10
2011,07,27,12,44,19.10
2011,07,27,12,45,19.10
2011,07,27,12,46,19.00
2011,07,27,12,47,19.00
2011,07,27,12,48,19.00
2011,07,27,12,49,19.10
2011,07,27,12,50,19.10
2011,07,27,12,51,19.10
2011,07,27,12,52,19.10
2011,07,27,12,53,19.10
2011,07,27,12,54,19.10
2011,07,27,12,55,19.10
2011,07,27,12,56,19.00
2011,07,27,12,57,19.00
2011,07,27,12,58,18.90
2011,07,27,12,59,18.90
2011,07,27,13,00,18.90
2011,07,27,13,01,19.00
2011,07,27,13,02,19.10
2011,07,27,13,03,19.10
2011,07,27,13,04,19.00
2011,07,27,13,05,19.00
2011,07,27,13,06,19.00
2011,07,27,13,07,19.00
2011,07,27,13,08,18.90
2011,07,27,13,09,18.90
2011,07,27,13,10,18.90
2011,07,27,13,11,18.90
2011,07,27,13,12,18.90
2011,07,27,13,13,18.90
2011,07,27,13,14,19.00
2011,07,27,13,15,19.10
2011,07,27,13,16,19.10
2011,07,27,13,17,19.20
2011,07,27,13,18,19.20
2011,07,27,13,19,19.30
2011,07,27,13,20,19.30
2011,07,27,13,21,19.30
2011,07,27,13,22,19.40
2011,07,27,13,23,19.50
2011,07,27,13,24,19.60
2011,07,27,13,25,19.60
2011,07,27,13,26,19.60
2011,07,27,13,27,19.70
2011,07,27,13,28,19.70
2011,07,27,13,29,19.70
2011,07,27,13,30,19.80
2011,07,27,13,31,19.80
2011,07,27,13,32,19.90
2011,07,27,13,33,20.00
2011,07,27,13,34,20.10
2011,07,27,13,35,20.10
2011,07,27,13,36,20.00
2011,07,27,13,37,19.90
2011,07,27,13,38,19.90
2011,07,27,13,39,19.80
2011,07,27,13,40,19.80
2011,07,27,13,41,19.90
2011,07,27,13,42,19.90
2011,07,27,13,43,19.80
2011,07,27,13,44,19.80
2011,07,27,13,45,19.70
2011,07,27,13,46,19.70
2011,07,27,13,47,19.70
2011,07,27,13,48,19.70
2011,07,27,13,49,19.60
2011,07,27,13,50,19.60
2011,07,27,13,51,19.60
2011,07,27,13,52,19.60
2011,07,27,13,53,19.60
2011,07,27,13,54,19.60
2011,07,27,13,55,19.60
2011,07,27,13,56,19.60
2011,07,27,13,57,19.60
2011,07,27,13,58,19.60
2011,07,27,13,59,19.60
2011,07,27,14,00,19.60
2011,07,27,14,01,19.60
2011,07,27,14,02,19.50
2011,07,27,14,03,19.50
2011,07,27,14,04,19.50
2011,07,27,14,05,19.50
2011,07,27,14,06,19.40
2011,07,27,14,07,19.40
2011,07,27,14,08,19.50
2011,07,27,14,09,19.50
2011,07,27,14,10,19.60
2011,07,27,14,11,19.50
2011,07,27,14,12,19.50
2011,07,27,14,13,19.50
2011,07,27,14,14,19.60
2011,07,27,14,15,19.60
2011,07,27,14,16,19.50
2011,07,27,14,17,19.50
2011,07,27,14,18,19.50
2011,07,27,14,19,19.50
2011,07,27,14,20,19.50
2011,07,27,14,21,19.50
2011,07,27,14,22,19.60
2011,07,27,14,23,19.60
2011,07,27,14,24,19.60
2011,07,27,14,25,19.70
2011,07,27,14,26,19.70
2011,07,27,14,27,19.80
2011,07,27,14,28,19.80
2011,07,27,14,29,19.80
2011,07,27,14,30,19.80
2011,07,27,14,31,19.80
2011,07,27,14,32,19.80
2011,07,27,14,33,19.90
2011,07,27,14,34,19.90
2011,07,27,14,35,19.80
2011,07,27,14,36,19.80
2011,07,27,14,37,19.80
2011,07,27,14,38,19.80
2011,07,27,14,39,19.90
2011,07,27,14,40,19.90
2011,07,27,14,41,19.90
2011,07,27,14,42,19.80
2011,07,27,14,43,19.80
2011,07,27,14,44,19.80
2011,07,27,14,45,19.80
2011,07,27,14,46,19.80
2011,07,27,14,47,19.90
2011,07,27,14,48,20.00
2011,07,27,14,49,20.20
2011,07,27,14,50,20.30
2011,07,27,14,51,20.40
2011,07,27,14,52,20.50
2011,07,27,14,53,20.60
2011,07,27,14,54,20.70
2011,07,27,14,55,20.60
2011,07,27,14,56,20.50
2011,07,27,14,57,20.50
2011,07,27,14,58,20.40
2011,07,27,14,59,20.40
2011,07,27,15,00,20.50
2011,07,27,15,01,20.50
2011,07,27,15,02,20.50
2011,07,27,15,03,20.50
2011,07,27,15,04,20.50
2011,07,27,15,05,20.50
2011,07,27,15,06,20.40
2011,07,27,15,07,20.30
2011,07,27,15,08,20.30
2011,07,27,15,09,20.30
2011,07,27,15,10,20.30
2011,07,27,15,11,20.30
2011,07,27,15,12,20.30
2011,07,27,15,13,20.30
2011,07,27,15,14,20.30
2011,07,27,15,15,20.20
2011,07,27,15,16,20.20
2011,07,27,15,17,20.20
2011,07,27,15,18,20.20
2011,07,27,15,19,20.30
2011,07,27,15,20,20.30
2011,07,27,15,21,20.50
2011,07,27,15,22,20.60
2011,07,27,15,23,20.70
2011,07,27,15,24,20.80
2011,07,27,15,25,20.80
2011,07,27,15,26,20.90
2011,07,27,15,27,20.90
2011,07,27,15,28,20.90
2011,07,27,15,29,20.90
2011,07,27,15,30,20.90
2011,07,27,15,31,20.80
2011,07,27,15,32,20.80
2011,07,27,15,33,20.80
2011,07,27,15,34,20.80
2011,07,27,15,35,20.80
2011,07,27,15,36,20.80
2011,07,27,15,37,20.90
2011,07,27,15,38,20.90
2011,07,27,15,39,20.90
2011,07,27,15,40,20.80
2011,07,27,15,41,20.80
2011,07,27,15,42,20.80
2011,07,27,15,43,20.80
2011,07,27,15,44,20.80
2011,07,27,15,45,20.80
2011,07,27,15,46,20.80
2011,07,27,15,47,20.90
2011,07,27,15,48,20.90
2011,07,27,15,49,20.90
2011,07,27,15,50,20.90
2011,07,27,15,51,20.90
2011,07,27,15,52,20.90
2011,07,27,15,53,20.90
2011,07,27,15,54,21.00
2011,07,27,15,55,21.00
2011,07,27,15,56,21.00
2011,07,27,15,57,21.10
2011,07,27,15,58,21.00
2011,07,27,15,59,21.00
2011,07,27,16,00,21.10
2011,07,27,16,01,21.10
2011,07,27,16,02,21.20
2011,07,27,16,03,21.20
2011,07,27,16,04,21.20
2011,07,27,16,05,21.30
2011,07,27,16,06,21.30
2011,07,27,16,07,21.30
2011,07,27,16,08,21.40
2011,07,27,16,09,21.40
2011,07,27,16,10,21.30
2011,07,27,16,11,21.30
2011,07,27,16,12,21.30
2011,07,27,16,13,21.20
2011,07,27,16,14,21.20
2011,07,27,16,15,21.20
2011,07,27,16,16,21.20
2011,07,27,16,17,21.20
2011,07,27,16,18,21.20
2011,07,27,16,19,21.20
2011,07,27,16,20,21.30
2011,07,27,16,21,21.40
2011,07,27,16,22,21.40
2011,07,27,16,23,21.40
2011,07,27,16,24,21.40
2011,07,27,16,25,21.40
2011,07,27,16,26,21.40
2011,07,27,16,27,21.20
2011,07,27,16,28,21.10
2011,07,27,16,29,21.10
2011,07,27,16,30,21.10
2011,07,27,16,31,21.10
2011,07,27,16,32,21.10
2011,07,27,16,33,21.20
2011,07,27,16,34,21.20
2011,07,27,16,35,21.20
2011,07,27,16,36,21.30
2011,07,27,16,37,21.40
2011,07,27,16,38,21.40
2011,07,27,16,39,21.40
2011,07,27,16,40,21.40
2011,07,27,16,41,21.40
2011,07,27,16,42,21.50
2011,07,27,16,43,21.60
2011,07,27,16,44,21.60
2011,07,27,16,45,21.70
2011,07,27,16,46,21.80
2011,07,27,16,47,21.80
2011,07,27,16,48,21.90
2011,07,27,16,49,21.90
2011,07,27,16,50,21.80
2011,07,27,16,51,21.80
2011,07,27,16,52,21.80
2011,07,27,16,53,21.70
2011,07,27,16,54,21.70
2011,07,27,16,55,21.60
2011,07,27,16,56,21.60
2011,07,27,16,57,21.50
2011,07,27,16,58,21.50
2011,07,27,16,59,21.40
2011,07,27,17,00,21.40
2011,07,27,17,01,21.30
2011,07,27,17,02,21.30
2011,07,27,17,03,21.20
2011,07,27,17,04,21.20
2011,07,27,17,05,21.20
2011,07,27,17,06,21.20
2011,07,27,17,07,21.20
2011,07,27,17,08,21.20
2011,07,27,17,09,21.20
2011,07,27,17,10,21.20
2011,07,27,17,11,21.20
2011,07,27,17,12,21.20
2011,07,27,17,13,21.20
2011,07,27,17,14,21.20
2011,07,27,17,15,21.20
2011,07,27,17,16,21.20
2011,07,27,17,17,21.20
2011,07,27,17,18,21.30
2011,07,27,17,19,21.30